User: anonymous   Login
Location: Unspecified
(0.0000°N, 0.0000°E)
Time: 05:03:47
(UTC+00:00)
Language:

RAX-2 - Orbit

View from above orbital plane
View from above orbital plane
View from above satellite
View from above satellite

Ground track
Ground track

The orbit data is extracted from the following two-line orbital elements,

1 37853U 11061D   16236.12779770  .00001154  00000-0  75092-4 0  9991
2 37853 101.7113 307.0722 0179819 246.3827 111.8412 15.00005386261937
Epoch (UTC): 23 August 2016 03:04:01
Eccentricity: 0.0179819
inclination: 101.7113°
perigee height: 442 km
apogee height: 692 km
right ascension of ascending node: 307.0722°
argument of perigee: 246.3827°
revolutions per day: 15.00005386
mean anomaly at epoch: 111.8412°
orbit number at epoch: 26193

The dashed part of the orbit path shows where the satellite is in the earth's shadow,  

DLR